| time (UTC) | temp F | wind direction | speed MPH | gust MPH | rain 1hr in | rain 24hr in | rain mn in | humidity % | barometer mb |
| 20260902153503 | 77 | 320 | 5.0 | 0.0 | 0.00 | 0.00 | 0.00 | 51 | 1018.0 |
| 20260902150502 | 79 | 3.0 | 0.0 | 0.00 | 0.00 | 0.00 | 48 | 1018.0 | |
| 20260902143502 | 79 | 3.0 | 0.0 | 0.00 | 0.00 | 0.00 | 48 | 1018.0 | |
| 20260902140502 | 77 | 2.0 | 0.0 | 0.00 | 0.00 | 0.00 | 51 | 1019.0 | |
| 20260902133501 | 77 | 290 | 5.0 | 0.0 | 0.00 | 0.00 | 0.00 | 51 | 1019.0 |
| 20260902130502 | 79 | 3.0 | 0.0 | 0.00 | 0.00 | 0.00 | 51 | 1019.0 | |
| 20260902123502 | 79 | 310 | 8.0 | 0.0 | 0.00 | 0.00 | 0.00 | 51 | 1019.0 |
| 20260902120503 | 77 | 3.0 | 0.0 | 0.00 | 0.00 | 0.00 | 51 | 1019.0 | |
| 20260902113502 | 77 | 60 | 3.0 | 0.0 | 0.00 | 0.00 | 0.00 | ||
| 20260902110502 | 75 | 2.0 | 0.0 | 0.00 | 0.00 | 0.00 | 54 | 1020.0 | |
| 20260902103501 | 75 | 3.0 | 0.0 | 0.00 | 0.00 | 0.00 | 54 | 1020.0 | |
| 20260902100503 | 77 | 3.0 | 0.0 | 0.00 | 0.00 | 0.00 | 54 | 1020.0 | |
| 20260902093502 | 75 | 250 | 6.0 | 0.0 | 0.00 | 0.00 | 0.00 | 54 | 1021.0 |
| 20260902090501 | 73 | 3.0 | 0.0 | 0.00 | 0.00 | 0.00 | 61 | 1021.0 | |
| 20260902083501 | 72 | 260 | 5.0 | 0.0 | 0.00 | 0.00 | 0.00 | 65 | 1021.0 |
| 20260902080502 | 70 | 2.0 | 0.0 | 0.00 | 0.00 | 0.00 | 69 | 1021.0 | |
| 20260902073502 | 68 | 310 | 3.0 | 0.0 | 0.00 | 0.00 | 0.00 | 73 | 1021.0 |
| 20260902070502 | 68 | 280 | 6.0 | 0.0 | 0.00 | 0.00 | 0.00 | 73 | 1021.0 |
| 20260902063503 | 66 | 250 | 6.0 | 0.0 | 0.00 | 0.00 | 0.00 | 78 | 1021.0 |
| 20260902060503 | 64 | 250 | 5.0 | 0.0 | 0.00 | 0.00 | 0.00 | 83 | 1020.0 |
| 20260902053502 | 63 | 230 | 6.0 | 0.0 | 0.00 | 0.00 | 0.00 | 83 | 1020.0 |
| 20260902050502 | 61 | 240 | 3.0 | 0.0 | 0.00 | 0.00 | 0.00 | 88 | 1020.0 |
| 20260902043502 | 61 | 230 | 5.0 | 0.0 | 0.00 | 0.00 | 0.00 | 88 | 1020.0 |
| 20260902040502 | 61 | 1.0 | 0.0 | 0.00 | 0.00 | 0.00 | 88 | 1020.0 | |
| 20260902033502 | 59 | 280 | 6.0 | 0.0 | 0.00 | 0.00 | 0.00 | 88 | 1020.0 |
| 20260902030502 | 59 | 280 | 5.0 | 0.0 | 0.00 | 0.00 | 0.00 | 88 | 1020.0 |
| 20260902023503 | 57 | 3.0 | 0.0 | 0.00 | 0.00 | 0.00 | 94 | 1020.0 | |
| 20260902020501 | 59 | 250 | 3.0 | 0.0 | 0.00 | 0.00 | 0.00 | 88 | 1020.0 |
| 20260902013502 | 61 | 270 | 5.0 | 0.0 | 0.00 | 0.00 | 0.00 | 88 | 1019.0 |
| 20260902010502 | 61 | 2.0 | 0.0 | 0.00 | 0.00 | 0.00 | 88 | 1019.0 | |
| 20260902003503 | 61 | 230 | 2.0 | 0.0 | 0.00 | 0.00 | 0.00 | 88 | 1019.0 |
| 20260902000503 | 61 | 230 | 6.0 | 0.0 | 0.00 | 0.00 | 0.00 | 88 | 1019.0 |
| 20260901233502 | 61 | 2.0 | 0.0 | 0.00 | 0.00 | 0.00 | 88 | 1019.0 | |
| 20260901230502 | 64 | 2.0 | 0.0 | 0.00 | 0.00 | 0.00 | 73 | 1019.0 | |
| 20260901223502 | 64 | 280 | 5.0 | 0.0 | 0.00 | 0.00 | 0.00 | 78 | 1019.0 |
| 20260901220502 | 63 | 260 | 7.0 | 0.0 | 0.00 | 0.00 | 0.00 | 83 | 1019.0 |
| 20260901213502 | 64 | 310 | 5.0 | 0.0 | 0.00 | 0.00 | 0.00 | 78 | 1019.0 |
| 20260901210504 | 64 | 310 | 5.0 | 0.0 | 0.00 | 0.00 | 0.00 | 78 | 1019.0 |
| 20260901203502 | 66 | 300 | 7.0 | 0.0 | 0.00 | 0.00 | 0.00 | 73 | 1019.0 |
| 20260901200502 | 64 | 280 | 7.0 | 0.0 | 0.00 | 0.00 | 0.00 | 83 | 1019.0 |
| 20260901193502 | 66 | 300 | 6.0 | 0.0 | 0.00 | 0.00 | 0.00 | 78 | 1019.0 |
| 20260901190502 | 66 | 270 | 5.0 | 0.0 | 0.00 | 0.00 | 0.00 | 78 | 1019.0 |
| 20260901183502 | 68 | 290 | 3.0 | 0.0 | 0.00 | 0.00 | 0.00 | 69 | 1018.0 |
| 20260901180502 | 70 | 270 | 5.0 | 0.0 | 0.00 | 0.00 | 0.00 | 69 | 1018.0 |
| 20260901173503 | 70 | 300 | 5.0 | 0.0 | 0.00 | 0.00 | 0.00 | 69 | 1018.0 |
| 20260901170502 | 72 | 300 | 5.0 | 0.0 | 0.00 | 0.00 | 0.00 | 65 | 1018.0 |
| 20260901163502 | 72 | 310 | 5.0 | 0.0 | 0.00 | 0.00 | 0.00 | 65 | 1017.0 |
| 20260901160502 | 73 | 300 | 7.0 | 0.0 | 0.00 | 0.00 | 0.00 | 57 | 1017.0 |